Air Resources Laboratory banner image
Air Resources Laboratory web site National Oceanic and Atmospheric Administration (NOAA)

ar roundup


Office: LZK

ASUS44 KLZK 240005
RWRLZK

WEATHER ROUNDUP FOR ARKANSAS
NATIONAL WEATHER SERVICE LITTLE ROCK AR
700 PM CDT TUE OCT 23 2018

NOTE: "FAIR" INDICATES FEW OR NO CLOUDS BELOW 12,000 FEET WITH NO
SIGNIFICANT WEATHER AND/OR OBSTRUCTIONS TO VISIBILITY.

ARZ001-003-010-029-240100-
NORTHWEST ARKANSAS

CITY           SKY/WX    TMP DP  RH WIND       PRES   REMARKS
FAYETTEVILLE   FAIR      60  51  72 CALM      30.22R
6HR MIN TEMP:  60; 6HR MAX TEMP:  72;

FORT SMITH     FAIR      64  53  67 CALM      30.20S
6HR MIN TEMP:  64; 6HR MAX TEMP:  73;

HARRISON       FAIR      60  50  69 CALM      30.23S
6HR MIN TEMP:  60; 6HR MAX TEMP:  72;

BENTONVILLE    FAIR      64  51  62 CALM      30.25R
6HR MIN TEMP:  64; 6HR MAX TEMP:  70;

ROGERS         FAIR      61  51  70 CALM      30.24R
6HR MIN TEMP:  61; 6HR MAX TEMP:  70;

SILOAM SPGS    FAIR      63  49  60 CALM      30.23S
6HR MIN TEMP:  63; 6HR MAX TEMP:  71;

HIGHFILL       FAIR      67  48  50 CALM      30.23S
6HR MIN TEMP:  65; 6HR MAX TEMP:  72;

SPRINGDALE     CLEAR     64  52  63 NE5       30.24R
$$

ARZ004-005-016-240100-
NORTH CENTRAL ARKANSAS

CITY           SKY/WX    TMP DP  RH WIND       PRES   REMARKS
BATESVILLE     FAIR      63  52  67 E3        30.22S
6HR MIN TEMP:  63; 6HR MAX TEMP:  73;

FLIPPIN        FAIR      62  52  69 CALM      30.22S
6HR MIN TEMP:  62; 6HR MAX TEMP:  74;

MTN HOME       FAIR      60  52  74 E3        30.21S
6HR MIN TEMP:  59; 6HR MAX TEMP:  73;

$$

ARZ040-041-240100-
WEST CENTRAL ARKANSAS

CITY           SKY/WX    TMP DP  RH WIND       PRES   REMARKS
MENA           FAIR      55  52  88 CALM      30.22R
$$

ARZ009-017-025-026-028-240100-
NORTHEAST ARKANSAS

CITY           SKY/WX    TMP DP  RH WIND       PRES   REMARKS
CORNING        FAIR      61  46  59 CALM      30.22S
JONESBORO      FAIR      58  54  86 N3        30.21S
6HR MIN TEMP:  58; 6HR MAX TEMP:  74;

NEWPORT        HAZE      61  52  72 CALM      30.22R VSB 1/2
6HR MIN TEMP:  61; 6HR MAX TEMP:  72;

WALNUT RIDGE   FAIR      60  48  64 E7        30.22R
6HR MIN TEMP:  60; 6HR MAX TEMP:  72;

BLYTHEVILLE    FAIR      59  49  69 NE6       30.21S
6HR MIN TEMP:  59; 6HR MAX TEMP:  74;

$$

ARZ022-023-033-042-044-240100-
CENTRAL ARKANSAS

CITY           SKY/WX    TMP DP  RH WIND       PRES   REMARKS
LITTLE ROCK    FAIR      58  50  75 CALM      30.21S
6HR MIN TEMP:  58; 6HR MAX TEMP:  70;

N LITTLE ROCK    N/A     57  50  76 CALM      30.24S
6HR MIN TEMP:  57; 6HR MAX TEMP:  71;

JACKSONVILLE   FAIR      58  51  80 CALM      30.20R
6HR MIN TEMP:  58; 6HR MAX TEMP:  71;

CONWAY         PTCLDY    59  54  82 CALM      30.21R
SEARCY         FAIR      57  53  86 CALM      30.21S
6HR MIN TEMP:  57; 6HR MAX TEMP:  72;

HOT SPRINGS    FAIR      59  51  75 CALM      30.21R
6HR MIN TEMP:  59; 6HR MAX TEMP:  71;

RUSSELLVILLE   FAIR      59  56  89 CALM      30.20R
6HR MIN TEMP:  59; 6HR MAX TEMP:  73;

CLINTON        FAIR      59  55  88 CALM      30.21R
$$

ARZ036-240100-
EAST ARKANSAS

CITY           SKY/WX    TMP DP  RH WIND       PRES   REMARKS
WEST MEMPHIS   FAIR      58  53  84 CALM      30.19S
6HR MIN TEMP:  58; 6HR MAX TEMP:  73;

$$

ARZ050-053-066-070-073-240100-
SOUTHWEST ARKANSAS

CITY           SKY/WX    TMP DP  RH WIND       PRES   REMARKS
ARKADELPHIA    FAIR      55  53  93 CALM      30.21R
6HR MIN TEMP:  55; 6HR MAX TEMP:  68;

CAMDEN           N/A     55  48  76 CALM      30.20R
TEXARKANA      FAIR      57  48  72 CALM      30.19R
6HR MIN TEMP:  57; 6HR MAX TEMP:  67;

EL DORADO      FAIR      55  52  89 CALM      30.19R
6HR MIN TEMP:  55; 6HR MAX TEMP:  68;

DE QUEEN       FAIR      56  50  80 CALM      30.18S
6HR MIN TEMP:  56; 6HR MAX TEMP:  72;

$$

ARZ056-057-069-240100-
SOUTHEAST ARKANSAS

CITY           SKY/WX    TMP DP  RH WIND       PRES   REMARKS
PINE BLUFF     FAIR      59  46  62 CALM      30.21R
6HR MIN TEMP:  58; 6HR MAX TEMP:  69;

STUTTGART      FAIR      62  45  53 CALM      30.21R
6HR MIN TEMP:  60; 6HR MAX TEMP:  68;

MONTICELLO     FAIR      56  51  84 CALM      30.20R
6HR MIN TEMP:  56; 6HR MAX TEMP:  69;


$$




ASUS44 KLZK 240015
RWRLZK

WEATHER ROUNDUP FOR ARKANSAS
NATIONAL WEATHER SERVICE LITTLE ROCK AR
700 PM CDT TUE OCT 23 2018

NOTE: "FAIR" INDICATES FEW OR NO CLOUDS BELOW 12,000 FEET WITH NO
SIGNIFICANT WEATHER AND/OR OBSTRUCTIONS TO VISIBILITY.

ARZ001-003-010-029-240100-
NORTHWEST ARKANSAS

CITY           SKY/WX    TMP DP  RH WIND       PRES   REMARKS
FAYETTEVILLE   FAIR      60  51  72 CALM      30.22R
6HR MIN TEMP:  60; 6HR MAX TEMP:  72;

FORT SMITH     FAIR      64  53  67 CALM      30.20S
6HR MIN TEMP:  64; 6HR MAX TEMP:  73;

HARRISON       FAIR      60  50  69 CALM      30.23S
6HR MIN TEMP:  60; 6HR MAX TEMP:  72;

BENTONVILLE    FAIR      64  51  62 CALM      30.25R
6HR MIN TEMP:  64; 6HR MAX TEMP:  70;

ROGERS         FAIR      61  51  70 CALM      30.24R
6HR MIN TEMP:  61; 6HR MAX TEMP:  70;

SILOAM SPGS    FAIR      63  49  60 CALM      30.23S
6HR MIN TEMP:  63; 6HR MAX TEMP:  71;

HIGHFILL       FAIR      67  48  50 CALM      30.23S
6HR MIN TEMP:  65; 6HR MAX TEMP:  72;

SPRINGDALE     CLEAR     64  52  63 NE5       30.24R
$$

ARZ004-005-016-240100-
NORTH CENTRAL ARKANSAS

CITY           SKY/WX    TMP DP  RH WIND       PRES   REMARKS
BATESVILLE     FAIR      63  52  67 E3        30.22S
6HR MIN TEMP:  63; 6HR MAX TEMP:  73;

FLIPPIN        FAIR      62  52  69 CALM      30.22S
6HR MIN TEMP:  62; 6HR MAX TEMP:  74;

MTN HOME       FAIR      60  52  74 E3        30.21S
6HR MIN TEMP:  59; 6HR MAX TEMP:  73;

$$

ARZ040-041-240100-
WEST CENTRAL ARKANSAS

CITY           SKY/WX    TMP DP  RH WIND       PRES   REMARKS
MENA           FAIR      55  52  88 CALM      30.22R
$$

ARZ009-017-025-026-028-240100-
NORTHEAST ARKANSAS

CITY           SKY/WX    TMP DP  RH WIND       PRES   REMARKS
CORNING        FAIR      61  46  59 CALM      30.22S
JONESBORO      FAIR      58  54  86 N3        30.21S
6HR MIN TEMP:  58; 6HR MAX TEMP:  74;

NEWPORT        HAZE      61  52  72 CALM      30.22R VSB 1/2
6HR MIN TEMP:  61; 6HR MAX TEMP:  72;

WALNUT RIDGE   FAIR      60  48  64 E7        30.22R
6HR MIN TEMP:  60; 6HR MAX TEMP:  72;

BLYTHEVILLE    FAIR      59  49  69 NE6       30.21S
6HR MIN TEMP:  59; 6HR MAX TEMP:  74;

$$

ARZ022-023-033-042-044-240100-
CENTRAL ARKANSAS

CITY           SKY/WX    TMP DP  RH WIND       PRES   REMARKS
LITTLE ROCK    FAIR      58  50  75 CALM      30.21S
6HR MIN TEMP:  58; 6HR MAX TEMP:  70;

N LITTLE ROCK    N/A     57  50  76 CALM      30.24S
6HR MIN TEMP:  57; 6HR MAX TEMP:  71;

JACKSONVILLE   FAIR      58  51  80 CALM      30.20R
6HR MIN TEMP:  58; 6HR MAX TEMP:  71;

CONWAY         PTCLDY    59  54  82 CALM      30.21R
SEARCY         FAIR      57  53  86 CALM      30.21S
6HR MIN TEMP:  57; 6HR MAX TEMP:  72;

HOT SPRINGS    FAIR      59  51  75 CALM      30.21R
6HR MIN TEMP:  59; 6HR MAX TEMP:  71;

RUSSELLVILLE   FAIR      59  56  89 CALM      30.20R
6HR MIN TEMP:  59; 6HR MAX TEMP:  73;

CLINTON        FAIR      59  55  88 CALM      30.21R
$$

ARZ036-240100-
EAST ARKANSAS

CITY           SKY/WX    TMP DP  RH WIND       PRES   REMARKS
WEST MEMPHIS   FAIR      58  53  84 CALM      30.19S
6HR MIN TEMP:  58; 6HR MAX TEMP:  73;

$$

ARZ050-053-066-070-073-240100-
SOUTHWEST ARKANSAS

CITY           SKY/WX    TMP DP  RH WIND       PRES   REMARKS
ARKADELPHIA    FAIR      55  53  93 CALM      30.21R
6HR MIN TEMP:  55; 6HR MAX TEMP:  68;

CAMDEN           N/A     55  48  76 CALM      30.20R
TEXARKANA      FAIR      57  48  72 CALM      30.19R
6HR MIN TEMP:  57; 6HR MAX TEMP:  67;

EL DORADO      FAIR      55  52  89 CALM      30.19R
6HR MIN TEMP:  55; 6HR MAX TEMP:  68;

DE QUEEN       FAIR      56  50  80 CALM      30.18S
6HR MIN TEMP:  56; 6HR MAX TEMP:  72;

$$

ARZ056-057-069-240100-
SOUTHEAST ARKANSAS

CITY           SKY/WX    TMP DP  RH WIND       PRES   REMARKS
PINE BLUFF     FAIR      59  46  62 CALM      30.21R
6HR MIN TEMP:  58; 6HR MAX TEMP:  69;

STUTTGART      FAIR      62  45  53 CALM      30.21R
6HR MIN TEMP:  60; 6HR MAX TEMP:  68;

MONTICELLO     FAIR      56  51  84 CALM      30.20R
6HR MIN TEMP:  56; 6HR MAX TEMP:  69;


$$